Darstellungsparameter: Aktuell verwendete Einstellungen:
Skalierung der Graphiken ... ?
xyx+y,   Skalierungsfaktor:      Skalierung: Modus: x, Faktor: 1
Darstellungszeitraum ... ?
Vom - - bis: - -   Zeitraum: 30.11.2020 - 30.11.2020
Min/Max/Avg-Anzeige ... ?
Zeige MMA aktuell
Zeige MMA Monat
Zeige MMA alles
Zeige --A aktuell
Zeige --A Monat
Zeige --A alles
Keine MMA-Anzeige
MMA:
Average (ber die Originaldaten)
MMA-Basis: 30.11.2020 - 30.11.2020
Quicknavigation für Darstellung... ?
Tage:      1T, 2T, 3T, 5T -1T -2T -3T -5T +1T +2T +3T +5T
Wochen: 1W, 2W, 3W -1W -2W -3W +1W +2W +3W
Monate: 1M, 3M, 6M -1M -3M -6M +1M +3M +6M
Jahre:    1J, 3J, 5J, 10J -1J -3J -5J -10J +1J +3J +5J +10J
Nutze für die Darstellung ... ?
Originaldaten oder Mittelwerte auf ...
Stundenbasis Tagesbasis Wochenbasis
Monatsbasis Jahresbasis      Datenbasis: Original-Daten
Darstellen als:
Statistik (Auto) Statistik J:M      Darstellung:
Zur Graphik,    zurück zur Übersicht aller Sensoren.
 
Tabellarische Datenbersicht: ?
 
Sensor: Nr:Datum:Temp:Feuchte:
Aussen-T/F 1 30-11-2020 01:02:17 -5.6 C 45 %
2 30-11-2020 01:12:17 -5.4 C 46 %
3 30-11-2020 01:22:18 -5.5 C 46 %
4 30-11-2020 01:32:17 -5.4 C 46 %
5 30-11-2020 01:42:17 -5.6 C 46 %
6 30-11-2020 01:52:18 -5.4 C 46 %
7 30-11-2020 02:02:17 -5.3 C 46 %
8 30-11-2020 02:12:17 -5.6 C 46 %
9 30-11-2020 02:22:17 -5.9 C 45 %
10 30-11-2020 02:32:18 -5.8 C 46 %
11 30-11-2020 02:42:18 -5.6 C 46 %
12 30-11-2020 02:52:17 -6.1 C 45 %
13 30-11-2020 03:02:18 -5.8 C 46 %
14 30-11-2020 03:12:18 -5.7 C 46 %
15 30-11-2020 03:22:18 -6 C 45 %
16 30-11-2020 03:32:17 -5.9 C 45 %
17 30-11-2020 03:42:17 -6.2 C 45 %
18 30-11-2020 03:52:17 -6 C 46 %
19 30-11-2020 04:02:18 -6.4 C 45 %
20 30-11-2020 04:12:18 -6.2 C 45 %
21 30-11-2020 04:22:17 -6.2 C 45 %
22 30-11-2020 04:32:17 -6.3 C 46 %
23 30-11-2020 04:42:18 -6.3 C 45 %
24 30-11-2020 04:52:17 -6.2 C 45 %
25 30-11-2020 05:02:17 -6.2 C 45 %
Sensor: Nr:Datum:Temp:Feuchte:
Aussen-T/F 26 30-11-2020 05:12:17 -6.4 C 45 %
27 30-11-2020 05:22:17 -6.7 C 45 %
28 30-11-2020 05:32:17 -6.6 C 45 %
29 30-11-2020 05:42:17 -6.3 C 45 %
30 30-11-2020 05:52:17 -6.1 C 46 %
31 30-11-2020 06:02:17 -6.2 C 45 %
32 30-11-2020 06:12:18 -6 C 45 %
33 30-11-2020 06:22:17 -6.2 C 45 %
34 30-11-2020 06:32:18 -6.7 C 44 %
35 30-11-2020 06:42:18 -6.7 C 45 %
36 30-11-2020 06:52:17 -6.1 C 46 %
37 30-11-2020 07:02:18 -5.8 C 45 %
38 30-11-2020 07:12:18 -5.8 C 46 %
39 30-11-2020 07:22:17 -6.1 C 45 %
40 30-11-2020 07:32:17 -6.2 C 45 %
41 30-11-2020 07:42:17 -6.6 C 45 %
42 30-11-2020 07:52:18 -7.1 C 43 %
43 30-11-2020 08:02:17 -6.9 C 44 %
44 30-11-2020 08:12:18 -6.4 C 46 %
45 30-11-2020 08:22:17 -6.5 C 45 %
46 30-11-2020 08:32:17 -6.7 C 45 %
47 30-11-2020 08:42:17 -6.6 C 45 %
48 30-11-2020 08:52:18 -6.4 C 45 %
49 30-11-2020 09:02:18 -6.5 C 45 %
50 30-11-2020 09:12:18 -6.3 C 45 %
Sensor: Nr:Datum:Temp:Feuchte:
Aussen-T/F 51 30-11-2020 09:22:17 -6.2 C 45 %
52 30-11-2020 09:32:18 -6.2 C 45 %
53 30-11-2020 09:42:18 -6 C 45 %
54 30-11-2020 09:52:17 -6 C 45 %
55 30-11-2020 10:02:17 -5.8 C 45 %
56 30-11-2020 10:12:17 -5.6 C 45 %
57 30-11-2020 10:22:17 -5.5 C 45 %
58 30-11-2020 10:32:18 -5.2 C 45 %
59 30-11-2020 10:42:18 -5.2 C 44 %
60 30-11-2020 10:52:17 -4.9 C 45 %
61 30-11-2020 11:02:18 -4.7 C 45 %
62 30-11-2020 11:12:18 -4.5 C 45 %
63 30-11-2020 11:22:17 -4.2 C 45 %
64 30-11-2020 11:32:18 -3.9 C 45 %
65 30-11-2020 11:42:18 -3.5 C 46 %
66 30-11-2020 11:52:17 -3.7 C 45 %
67 30-11-2020 12:02:17 -3.4 C 46 %
68 30-11-2020 12:12:18 -3.3 C 46 %
69 30-11-2020 12:22:18 -3 C 46 %
70 30-11-2020 12:32:18 -2.3 C 46 %
71 30-11-2020 12:42:18 -1.4 C 46 %
72 30-11-2020 12:52:18 -0.8 C 46 %
73 30-11-2020 13:02:17 -0.3 C 46 %
74 30-11-2020 13:12:17 -0.7 C 46 %
75 30-11-2020 13:22:17 -0.3 C 46 %
Sensor: Nr:Datum:Temp:Feuchte:
Aussen-T/F 76 30-11-2020 13:32:17 0.1 C 46 %
77 30-11-2020 13:42:17 0.6 C 46 %
78 30-11-2020 13:52:17 1 C 44 %
79 30-11-2020 14:02:17 1.7 C 43 %
80 30-11-2020 14:12:17 2.7 C 40 %
81 30-11-2020 14:22:17 2.6 C 40 %
82 30-11-2020 14:32:18 2.7 C 41 %
83 30-11-2020 14:42:18 2.9 C 40 %
84 30-11-2020 14:52:18 2.4 C 40 %
85 30-11-2020 15:02:18 1.5 C 41 %
86 30-11-2020 15:12:18 1.2 C 42 %
87 30-11-2020 15:22:17 1.7 C 41 %
88 30-11-2020 15:32:18 2 C 40 %
89 30-11-2020 15:42:18 2.3 C 39 %
90 30-11-2020 15:52:17 2.4 C 39 %
91 30-11-2020 16:02:17 2.5 C 39 %
92 30-11-2020 16:12:17 2.6 C 39 %
93 30-11-2020 16:22:18 2.5 C 38 %
94 30-11-2020 16:32:17 2.6 C 38 %
95 30-11-2020 16:42:17 2.3 C 39 %
96 30-11-2020 16:52:17 2.2 C 39 %
97 30-11-2020 17:02:17 2.2 C 39 %
98 30-11-2020 17:12:17 2.5 C 39 %
99 30-11-2020 17:22:18 2.4 C 39 %
100 30-11-2020 17:32:18 2.4 C 39 %
Sensor: Nr:Datum:Temp:Feuchte:
Aussen-T/F 101 30-11-2020 17:42:18 2.4 C 39 %
102 30-11-2020 17:52:17 2.4 C 39 %
103 30-11-2020 18:02:17 2.4 C 39 %
104 30-11-2020 18:12:17 2.6 C 39 %
105 30-11-2020 18:22:17 2.6 C 39 %
106 30-11-2020 18:32:17 2.6 C 39 %
107 30-11-2020 18:42:17 2.5 C 39 %
108 30-11-2020 18:52:17 2.4 C 39 %
109 30-11-2020 19:02:18 1.8 C 41 %
110 30-11-2020 19:12:18 1.8 C 42 %
111 30-11-2020 19:22:17 1.7 C 42 %
112 30-11-2020 19:32:17 1.5 C 43 %
113 30-11-2020 19:42:17 1.3 C 43 %
114 30-11-2020 19:52:17 1.2 C 44 %
115 30-11-2020 20:02:17 1.3 C 45 %
116 30-11-2020 20:12:18 1.3 C 45 %
117 30-11-2020 20:22:17 1.2 C 45 %
118 30-11-2020 20:32:17 1.3 C 45 %
119 30-11-2020 20:42:17 1.2 C 45 %
120 30-11-2020 20:52:17 1.2 C 45 %
121 30-11-2020 21:02:17 1.2 C 45 %
122 30-11-2020 21:12:17 1.1 C 46 %
123 30-11-2020 21:22:17 1.1 C 46 %
124 30-11-2020 21:32:17 1.1 C 46 %
125 30-11-2020 21:42:17 1 C 46 %
Sensor: Nr:Datum:Temp:Feuchte:
Aussen-T/F 126 30-11-2020 21:52:17 1 C 47 %
127 30-11-2020 22:02:17 1 C 47 %
128 30-11-2020 22:12:17 1 C 48 %
129 30-11-2020 22:22:18 1.1 C 47 %
130 30-11-2020 22:32:17 1.1 C 47 %
131 30-11-2020 22:42:17 1.1 C 47 %
132 30-11-2020 22:52:17 1.1 C 46 %
133 30-11-2020 23:02:17 1 C 46 %
134 30-11-2020 23:12:17 0.9 C 47 %
135 30-11-2020 23:22:17 0.8 C 47 %
136 30-11-2020 23:32:17 0.6 C 48 %
137 30-11-2020 23:42:17 0.5 C 48 %
138 30-11-2020 23:52:17 0.6 C 48 %
Sensor: Nr:Datum:Temp:Feuchte:
G-T/H 1 30-11-2020 01:02:17 8 C 69 %
2 30-11-2020 01:12:17 8.1 C 69 %
3 30-11-2020 01:22:18 8 C 69 %
4 30-11-2020 01:32:17 8 C 69 %
5 30-11-2020 01:42:17 8 C 69 %
6 30-11-2020 01:52:18 8 C 69 %
7 30-11-2020 02:02:17 8 C 69 %
8 30-11-2020 02:12:17 8 C 69 %
9 30-11-2020 02:22:17 8 C 69 %
10 30-11-2020 02:32:18 8 C 69 %
11 30-11-2020 02:42:18 7.9 C 70 %
12 30-11-2020 02:52:17 8 C 69 %
13 30-11-2020 03:02:18 7.9 C 70 %
14 30-11-2020 03:12:18 7.9 C 70 %
15 30-11-2020 03:22:18 7.9 C 70 %
16 30-11-2020 03:32:17 7.9 C 70 %
17 30-11-2020 03:42:17 7.9 C 70 %
18 30-11-2020 03:52:17 7.9 C 70 %
19 30-11-2020 04:02:18 7.9 C 70 %
20 30-11-2020 04:12:18 7.8 C 70 %
21 30-11-2020 04:22:17 7.8 C 70 %
22 30-11-2020 04:32:17 7.8 C 69 %
23 30-11-2020 04:42:18 7.8 C 69 %
24 30-11-2020 04:52:17 7.8 C 69 %
25 30-11-2020 05:02:17 7.8 C 69 %
Sensor: Nr:Datum:Temp:Feuchte:
G-T/H 26 30-11-2020 05:12:17 7.7 C 69 %
27 30-11-2020 05:22:17 7.7 C 69 %
28 30-11-2020 05:32:17 7.7 C 69 %
29 30-11-2020 05:42:17 7.7 C 69 %
30 30-11-2020 05:52:17 7.7 C 69 %
31 30-11-2020 06:02:17 7.7 C 69 %
32 30-11-2020 06:12:18 7.7 C 69 %
33 30-11-2020 06:22:17 7.6 C 69 %
34 30-11-2020 06:32:18 7.6 C 69 %
35 30-11-2020 06:42:18 7.6 C 69 %
36 30-11-2020 06:52:17 7.6 C 69 %
37 30-11-2020 07:02:18 7.6 C 69 %
38 30-11-2020 07:12:18 7.6 C 69 %
39 30-11-2020 07:22:17 7.6 C 69 %
40 30-11-2020 07:32:17 7.5 C 68 %
41 30-11-2020 07:42:17 7.5 C 67 %
42 30-11-2020 07:52:18 7.5 C 66 %
43 30-11-2020 08:02:17 7.5 C 66 %
44 30-11-2020 08:12:18 7.6 C 66 %
45 30-11-2020 08:22:17 7.6 C 66 %
46 30-11-2020 08:32:17 7.6 C 66 %
47 30-11-2020 08:42:17 7.6 C 66 %
48 30-11-2020 08:52:18 7.5 C 66 %
49 30-11-2020 09:02:18 7.6 C 66 %
50 30-11-2020 09:12:18 7.5 C 67 %
Sensor: Nr:Datum:Temp:Feuchte:
G-T/H 51 30-11-2020 09:22:17 7.5 C 67 %
52 30-11-2020 09:32:18 7.5 C 67 %
53 30-11-2020 09:42:18 7.5 C 67 %
54 30-11-2020 09:52:17 7.5 C 67 %
55 30-11-2020 10:02:17 7.5 C 67 %
56 30-11-2020 10:12:17 7.5 C 67 %
57 30-11-2020 10:22:17 7.5 C 67 %
58 30-11-2020 10:32:18 7.5 C 67 %
59 30-11-2020 10:42:18 7.5 C 67 %
60 30-11-2020 10:52:17 7.5 C 67 %
61 30-11-2020 11:02:18 7.4 C 67 %
62 30-11-2020 11:12:18 7.4 C 67 %
63 30-11-2020 11:22:17 7.4 C 67 %
64 30-11-2020 11:32:18 7.4 C 67 %
65 30-11-2020 11:42:18 7.4 C 67 %
66 30-11-2020 11:52:17 7.4 C 67 %
67 30-11-2020 12:02:17 7.4 C 67 %
68 30-11-2020 12:12:18 7.4 C 67 %
69 30-11-2020 12:22:18 7.4 C 67 %
70 30-11-2020 12:32:18 7.4 C 67 %
71 30-11-2020 12:42:18 7.4 C 67 %
72 30-11-2020 12:52:18 7.4 C 67 %
73 30-11-2020 13:02:17 7.4 C 67 %
74 30-11-2020 13:12:17 7.4 C 67 %
75 30-11-2020 13:22:17 7.4 C 67 %
Sensor: Nr:Datum:Temp:Feuchte:
G-T/H 76 30-11-2020 13:32:17 7.4 C 67 %
77 30-11-2020 13:42:17 7.4 C 68 %
78 30-11-2020 13:52:17 7.4 C 68 %
79 30-11-2020 14:02:17 7.4 C 68 %
80 30-11-2020 14:12:17 7.4 C 68 %
81 30-11-2020 14:22:17 7.4 C 68 %
82 30-11-2020 14:32:18 7.4 C 68 %
83 30-11-2020 14:42:18 7.4 C 68 %
84 30-11-2020 14:52:18 7.4 C 68 %
85 30-11-2020 15:02:18 7.4 C 68 %
86 30-11-2020 15:12:18 7.4 C 68 %
87 30-11-2020 15:22:17 7.4 C 68 %
88 30-11-2020 15:32:18 7.4 C 69 %
89 30-11-2020 15:42:18 7.4 C 69 %
90 30-11-2020 15:52:17 7.4 C 69 %
91 30-11-2020 16:02:17 7.4 C 69 %
92 30-11-2020 16:12:17 7.4 C 69 %
93 30-11-2020 16:22:18 7.4 C 69 %
94 30-11-2020 16:32:17 7.4 C 69 %
95 30-11-2020 16:42:17 7.4 C 69 %
96 30-11-2020 16:52:17 7.4 C 69 %
97 30-11-2020 17:02:17 7.2 C 68 %
98 30-11-2020 17:12:17 7.5 C 63 %
99 30-11-2020 17:22:18 7.9 C 62 %
100 30-11-2020 17:32:18 8.2 C 61 %
Sensor: Nr:Datum:Temp:Feuchte:
G-T/H 101 30-11-2020 17:42:18 8.3 C 62 %
102 30-11-2020 17:52:17 8.3 C 63 %
103 30-11-2020 18:02:17 8.3 C 63 %
104 30-11-2020 18:12:17 8.3 C 64 %
105 30-11-2020 18:22:17 8.3 C 64 %
106 30-11-2020 18:32:17 8.2 C 64 %
107 30-11-2020 18:42:17 8.2 C 64 %
108 30-11-2020 18:52:17 8.2 C 65 %
109 30-11-2020 19:02:18 8.2 C 65 %
110 30-11-2020 19:12:18 8.2 C 65 %
111 30-11-2020 19:22:17 8.2 C 65 %
112 30-11-2020 19:32:17 8.1 C 65 %
113 30-11-2020 19:42:17 8.1 C 65 %
114 30-11-2020 19:52:17 8.1 C 65 %
115 30-11-2020 20:02:17 8.1 C 66 %
116 30-11-2020 20:12:18 8 C 66 %
117 30-11-2020 20:22:17 8 C 66 %
118 30-11-2020 20:32:17 8 C 66 %
119 30-11-2020 20:42:17 7.9 C 67 %
120 30-11-2020 20:52:17 7.9 C 67 %
121 30-11-2020 21:02:17 7.9 C 67 %
122 30-11-2020 21:12:17 7.9 C 68 %
123 30-11-2020 21:22:17 7.9 C 68 %
124 30-11-2020 21:32:17 7.9 C 68 %
125 30-11-2020 21:42:17 7.8 C 68 %
Sensor: Nr:Datum:Temp:Feuchte:
G-T/H 126 30-11-2020 21:52:17 7.8 C 68 %
127 30-11-2020 22:02:17 7.8 C 68 %
128 30-11-2020 22:12:17 7.8 C 68 %
129 30-11-2020 22:22:18 7.8 C 68 %
130 30-11-2020 22:32:17 7.8 C 68 %
131 30-11-2020 22:42:17 7.8 C 68 %
132 30-11-2020 22:52:17 7.8 C 68 %
133 30-11-2020 23:02:17 7.7 C 69 %
134 30-11-2020 23:12:17 7.7 C 69 %
135 30-11-2020 23:22:17 7.7 C 69 %
136 30-11-2020 23:32:17 7.7 C 69 %
137 30-11-2020 23:42:17 7.7 C 69 %
138 30-11-2020 23:52:17 7.7 C 69 %

Legende:
   Min
   Max


Maximal/Minimal-Werte vom 30.11.2020 - 30.11.2020

Sensor Min Max Avg
Temp
(Aussen-T/F)
-7.1 °C
30-11-2020  07:52:18
2.9 °C
30-11-2020  14:42:18
-2.15 °C
Feuchte
(Aussen-T/F)
38 %
30-11-2020  16:22:18
48 %
30-11-2020  22:12:17
44.1 %
Temp
(G-T/H)
7.2 °C
30-11-2020  17:02:17
8.3 °C
30-11-2020  17:42:18
7.71 °C
Feuchte
(G-T/H)
61 %
30-11-2020  17:32:18
70 %
30-11-2020  02:42:18
67.55 %

Die Daten stammen von einer Davis Vantage Pro 2 Wetter-Station und werden unter Linux mit der Software wview2wettercgi und aufbereitet. Alle Angaben erfolgen ohne Gewähr für ihre Vollständigkeit oder Richtigkeit.
Kontakt: Rainer Krienke krienke@uni-koblenz.de . Meine Webseiten an der Uni Koblenz oder privat.
Version: $Revision: 0.78 $